Location: Centerville
(32.8776°N, 96.6203°W)
Time: 13:22:48
(UTC+00:00)

Cosmos 1515 Rocket - Pass Details

Date: 17 June 2021
Orbit: 607 x 629 km, 82.5° (Epoch: 30 July)

Event Time Altitude Azimuth Distance (km) Brightness Sun altitude
Rises 10:14:24 0° 352° (N) 2,902 7.4 -12.0°
Reaches altitude 10° 10:16:38 10° 352° (N) 1,996 6.6 -11.6°
Maximum altitude 10:21:03 82° 266° (W) 635 3.5 -10.9°
Drops below altitude 10° 10:25:29 10° 178° (S) 1,993 5.8 -10.1°
Sets 10:27:42 0° 177° (S) 2,898 6.7 -9.7°
